Location: Sternwarte ZA, Rosenfeld-Brittheim
(48.2889°N, 8.6789°E)
Time: 17:23:31
(UTC+02:00)

ISS - Pass Details

Date: 28 May 2020
Orbit: 417 x 420 km, 51.6° (Epoch: 26 May)

Event Time Altitude Azimuth Distance (km) Brightness Sun altitude
Rises 23:09:04 0° 291° (WNW) 2,368 1.0 -13.9°
Reaches altitude 10° 23:11:13 10° 285° (WNW) 1,501 -0.3 -14.1°
Maximum altitude 23:14:26 44° 212° (SSW) 589 -3.3 -14.4°
Enters shadow 23:15:35 31° 162° (SSE) 765 -3.0 -14.5°
